Location: *
(45.0500°N, 12.0500°E)
Time: 03:41:20
(UTC+00:00)

SPOT 5 - Pass Details

Date: 09 April 2020
Orbit: 624 x 814 km, 98.3° (Epoch: 04 June)

Event Time Altitude Azimuth Distance (km) Brightness Sun altitude
Exits shadow 20:31:35 41° 30° (NNE) 911 3.4 -25.7°
Drops below altitude 10° 20:34:47 10° 357° (N) 2,008 5.8 -26.1°
Sets 20:37:01 0° 352° (N) 2,925 6.8 -26.4°
